Location: Unspecified
(51.0950°N, 12.9690°E)
Time: 07:14:52
(UTC+00:00)

NANOSAT C BR1 - Pass Details

Date: 24 April 2024
Orbit: 556 x 561 km, 98.1° (Epoch: 19 May)

Event Time Altitude Azimuth Distance (km) Brightness Sun altitude
Rises 02:12:05 0° 25° (NNE) 2,773 ? -14.3°
Reaches altitude 10° 02:14:36 10° 40° (NE) 1,873 ? -14.0°
Maximum altitude 02:17:51 23° 94° (E) 1,231 ? -13.6°
Drops below altitude 10° 02:21:05 10° 147° (SSE) 1,862 ? -13.2°
Sets 02:23:34 0° 162° (SSE) 2,754 ? -12.9°
